Simultaneous Nadir Overpasses (SNOs) Predictions

Prediction of SNOs between GOES-14 and NOAA-20 Satellite Orbit:

Table of predicted SNOs for the next 14.0 days since TLE Epoch: 11/13/2020
Index Date Time (GOES-14) GOES-14 Lat,Lon NOAA-20 Lat,Lon Distance(km) Time Diff (sec)
1 11/13/2020 20:26:46 -0.05,-104.20 -0.41,-105.82 184.74 80
2 11/14/2020 20:10:41 -0.06,-104.21 0.58,-101.29 332.55 80
3 11/16/2020 08:32:30 0.03,-104.38 0.55,-106.57 249.70 80
4 11/17/2020 08:11:06 0.05,-104.37 -0.45,-102.04 265.82 80
5 11/18/2020 20:33:03 -0.02,-104.18 -0.72,-107.35 360.57 80
6 11/19/2020 20:16:59 -0.04,-104.18 0.28,-102.81 156.51 80
7 11/21/2020 08:38:48 0.01,-104.39 0.85,-108.10 422.70 80
8 11/22/2020 08:17:24 0.02,-104.38 -0.14,-103.56 93.17 80
9 11/24/2020 20:20:36 -0.01,-104.18 -0.02,-104.34 17.83 80
10 11/27/2020 08:26:21 -0.00,-104.41 0.15,-105.09 77.36 80
